QPF
0.00 0.00 0.00 0.00 0.00 0.00 0.00 0.00 0.00 0.00 0.00 0.00 0.00 0.00 0.00 0.00 0.00 0.00 0.00 0.00 0.00 0.00 0.00 0.00 0.00 0.00 0.00 0.00 0.00 0.00 0.00 0.00 0.00 0.00 0.00 0.00 0.00 0.00 0.00 0.00 0.00 0.00 0.00 0.00
0.00 0.00 0.00 0.00 0.00 0.00 0.00 0.00 0.00 0.00 0.00 0.00 0.00 0.00 0.00 0.00 0.00 0.00 0.00 0.00 0.00 0.00 0.00 0.00 0.00 0.00 0.00 0.00 0.00 0.00 0.00 0.00 0.00 0.00 0.00 0.00 0.00 0.00 0.00 0.00 0.00 0.00 0.00 0.00
0.00 0.00 0.00 0.00 0.00 0.00 0.00 0.00 0.00 0.00 0.00 0.00 0.00 0.00 0.00 0.00 0.00 0.00 0.00 0.00 0.00 0.00 0.00 0.00 0.00 0.00 0.00 0.00 0.00 0.00 0.00 0.00 0.00 0.00 0.00 0.00 0.00 0.00 0.00 0.00 0.00 0.00 0.00 0.00
0.00 0.00 0.00 0.00 0.00 0.00 0.00 0.00 0.00 0.00 0.00 0.00 0.00 0.00 0.00 0.00 0.00 0.00 0.00 0.00 0.00 0.00 0.00 0.00 0.00 0.00 0.00 0.00 0.00 0.00 0.00 0.00 0.00 0.00 0.00 0.00 0.00 0.00 0.00 0.00 0.00 0.00 0.00 0.00
0.00 0.00 0.00 0.00 0.00 0.00 0.00 0.00 0.00 0.00 0.00 0.00 0.00 0.00 0.00 0.00 0.00 0.00 0.00 0.00 0.00 0.00 0.00 0.00 0.00 0.00 0.00 0.00 0.00 0.00 0.00 0.00 0.00 0.00 0.00 0.00 0.00 0.00 0.00 0.00 0.00 0.00 0.00 0.00
0.00 0.00 0.00 0.00 0.00 0.00 0.00 0.00 0.00 0.00 0.00 0.00 0.00 0.00 0.00 0.00 0.00 0.00 0.00 0.00 0.00 0.00 0.00 0.00 0.00 0.00 0.00 0.00 0.00 0.00 0.00 0.00 0.00 0.00 0.00 0.00 0.00 0.00 0.00 0.00 0.00 0.00 0.00 0.00
0.00 0.00 0.00 0.00 0.00 0.00 0.00 0.00 0.00 0.00 0.00 0.00 0.00 0.00 0.00 0.00 0.00 0.00 0.00 0.00 0.00 0.00 0.00 0.00 0.00 0.00 0.00 0.00 0.00 0.00 0.00 0.00 0.00 0.00 0.00 0.00 0.00 0.00 0.00 0.00 0.00 0.00 0.00 0.00
0.00 0.00 0.00 0.00 0.00 0.00 0.00 0.00 0.00 0.00 0.00 0.00 0.00 0.00 0.00 0.00 0.00 0.00 0.00 0.00 0.00 0.00 0.00 0.00 0.00 0.00 0.00 0.00 0.00 0.00 0.00 0.00 0.00 0.00 0.00 0.00 0.00 0.00 0.00 0.00 0.00 0.00 0.00 0.00
0.00 0.00 0.00 0.00 0.00 0.00 0.00 0.00 0.00 0.00 0.00 0.00 0.00 0.00 0.00 0.00 0.00 0.00 0.00 0.00 0.00 0.00 0.00 0.00 0.00 0.00 0.00 0.00 0.00 0.00 0.00 0.00 0.00 0.00 0.00 0.00 0.00 0.00 0.00 0.00 0.00 0.00 0.00 0.00
0.00 0.00 0.00 0.00 0.00 0.00 0.00 0.00 0.00 0.00 0.00 0.00 0.00 0.00 0.00 0.00 0.00 0.00 0.00 0.00 0.00 0.00 0.00 0.00 0.00 0.00 0.00 0.00 0.00 0.00 0.00 0.00 0.00 0.00 0.00 0.00 0.00 0.00 0.00 0.00 0.00 0.00 0.00 0.00
0.00 0.00 0.00 0.00 0.00 0.00 0.00 0.00 0.00 0.00 0.00 0.00 0.00 0.00 0.00 0.00 0.00 0.00 0.00 0.00 0.00 0.00 0.00 0.00 0.00 0.00 0.00 0.00 0.00 0.00 0.00 0.00 0.00 0.00 0.00 0.00 0.00 0.00 0.00 0.00 0.00 0.00 0.00 0.00
0.00 0.00 0.00 0.00 0.00 0.00 0.00 0.00 0.00 0.00 0.00 0.00 0.00 0.00 0.00 0.00 0.00 0.00 0.00 0.00 0.00 0.00 0.00 0.00 0.00 0.00 0.00 0.00 0.00 0.00 0.00 0.00 0.00 0.00 0.00 0.00 0.00 0.00 0.00 0.00 0.00 0.00 0.00 0.00
0.00 0.00 0.00 0.00 0.00 0.00 0.00 0.00 0.00 0.00 0.00 0.00 0.00 0.00 0.00 0.00 0.00 0.00 0.00 0.00 0.00 0.00 0.00 0.00 0.00 0.00 0.00 0.00 0.00 0.00 0.00 0.00 0.00 0.00 0.00 0.00 0.00 0.00 0.00 0.00 0.00 0.00 0.00 0.00
0.01 0.00 0.00 0.00 0.00 0.00 0.00 0.00 0.00 0.00 0.00 0.00 0.00 0.00 0.00 0.00 0.00 0.00 0.00 0.00 0.00 0.00 0.00 0.00 0.00 0.00 0.00 0.00 0.00 0.00 0.00 0.00 0.00 0.00 0.00 0.00 0.00 0.00 0.00 0.00 0.00 0.00 0.00 0.00
0.01 0.00 0.00 0.00 0.00 0.00 0.00 0.00 0.00 0.00 0.00 0.00 0.00 0.00 0.00 0.00 0.00 0.00 0.00 0.00 0.00 0.00 0.00 0.00 0.00 0.00 0.00 0.00 0.00 0.00 0.00 0.00 0.00 0.00 0.00 0.00 0.00 0.00 0.00 0.00 0.00 0.00 0.00 0.00
0.01 0.00 0.00 0.00 0.00 0.00 0.00 0.00 0.00 0.00 0.00 0.00 0.00 0.00 0.00 0.00 0.00 0.00 0.00 0.00 0.00 0.00 0.00 0.00 0.00 0.00 0.00 0.00 0.00 0.00 0.00 0.00 0.00 0.00 0.00 0.00 0.00 0.00 0.00 0.00 0.00 0.00 0.00 0.00
0.00 0.00 0.00 0.00 0.00 0.00 0.00 0.00 0.00 0.00 0.00 0.00 0.00 0.00 0.00 0.00 0.00 0.00 0.00 0.00 0.00 0.00 0.00 0.00 0.00 0.00 0.00 0.00 0.00 0.00 0.00 0.00 0.00 0.00 0.00 0.00 0.00 0.00 0.00 0.00 0.00 0.00 0.00 0.00
0.00 0.00 0.00 0.00 0.00 0.00 0.00 0.00 0.00 0.00 0.00 0.00 0.00 0.00 0.00 0.00 0.00 0.00 0.00 0.00 0.00 0.00 0.00 0.00 0.00 0.00 0.00 0.00 0.00 0.00 0.00 0.00 0.00 0.00 0.00 0.00 0.00 0.00 0.00 0.00 0.00 0.00 0.00 0.00
0.00 0.00 0.00 0.01 0.01 0.00 0.00 0.00 0.00 0.00 0.00 0.00 0.00 0.00 0.00 0.00 0.00 0.00 0.00 0.00 0.00 0.00 0.00 0.00 0.00 0.00 0.00 0.00 0.00 0.00 0.00 0.00 0.00 0.00 0.00 0.00 0.00 0.00 0.00 0.00 0.00 0.00 0.00 0.00
0.00 0.00 0.01 0.01 0.01 0.00 0.00 0.00 0.00 0.00 0.00 0.00 0.00 0.00 0.00 0.00 0.00 0.00 0.00 0.00 0.00 0.00 0.00 0.00 0.00 0.00 0.00 0.00 0.00 0.00 0.00 0.00 0.00 0.00 0.00 0.00 0.00 0.00 0.00 0.00 0.00 0.00 0.00 0.00
0.00 0.00 0.00 0.00 0.01 0.00 0.00 0.00 0.00 0.00 0.00 0.00 0.00 0.00 0.00 0.00 0.00 0.00 0.00 0.00 0.00 0.00 0.00 0.00 0.00 0.00 0.00 0.00 0.00 0.00 0.00 0.00 0.00 0.00 0.00 0.00 0.00 0.00 0.00 0.00 0.00 0.00 0.00 0.00
0.00 0.01 0.01 0.01 0.01 0.01 0.00 0.00 0.00 0.00 0.01 0.00 0.00 0.00 0.00 0.00 0.00 0.00 0.00 0.00 0.00 0.00 0.00 0.00 0.00 0.00 0.00 0.00 0.00 0.00 0.00 0.00 0.00 0.00 0.00 0.00 0.00 0.00 0.00 0.00 0.00 0.00 0.00 0.00
0.00 0.01 0.01 0.04 0.03 0.02 0.01 0.01 0.01 0.01 0.01 0.00 0.00 0.00 0.00 0.00 0.00 0.00 0.00 0.00 0.00 0.00 0.00 0.00 0.00 0.00 0.00 0.00 0.00 0.00 0.00 0.00 0.00 0.00 0.00 0.00 0.00 0.00 0.00 0.00 0.00 0.00 0.00 0.00
0.00 0.01 0.02 0.01 0.01 0.01 0.00 0.00 0.00 0.00 0.00 0.00 0.00 0.00 0.00 0.00 0.00 0.00 0.00 0.00 0.00 0.00 0.00 0.00 0.00 0.00 0.00 0.00 0.00 0.00 0.00 0.00 0.00 0.00 0.00 0.00 0.00 0.00 0.00 0.00 0.00 0.00 0.00 0.00
0.00 0.00 0.00 0.00 0.00 0.00 0.00 0.00 0.00 0.00 0.00 0.00 0.00 0.00 0.00 0.00 0.00 0.00 0.00 0.00 0.00 0.00 0.00 0.00 0.00 0.00 0.00 0.00 0.00 0.00 0.00 0.00 0.00 0.00 0.00 0.00 0.00 0.00 0.00 0.00 0.00 0.00 0.00 0.00
0.00 0.00 0.00 0.00 0.00 0.00 0.00 0.00 0.00 0.00 0.00 0.00 0.00 0.00 0.00 0.00 0.00 0.00 0.00 0.00 0.00 0.00 0.00 0.00 0.00 0.00 0.00 0.00 0.00 0.00 0.00 0.00 0.00 0.00 0.00 0.00 0.00 0.00 0.00 0.00 0.00 0.00 0.00 0.00
MSLP
1017.85 1017.34 1016.81 1016.40 1017.03 1017.27 1016.98 1016.88 1016.68 1016.86 1017.53 1017.49 1016.28 1014.84 1014.09 1013.73 1013.50 1013.22 1012.91 1012.42 1012.18 1012.07 1012.31 1013.28 1014.14 1015.16 1016.08 1016.82 1017.43 1017.94 1018.55 1018.97 1019.52 1019.93 1020.35 1020.82 1021.19 1021.64 1021.90 1022.08 1022.29 1022.40 1022.82 1023.16
1017.96 1017.13 1016.73 1017.37 1017.74 1017.74 1017.61 1017.33 1017.05 1017.15 1017.77 1017.77 1016.19 1014.26 1013.43 1013.03 1012.09 1011.80 1011.41 1010.96 1010.89 1010.87 1011.25 1012.16 1013.34 1014.34 1015.02 1015.54 1016.32 1017.10 1017.57 1018.12 1018.64 1019.05 1019.41 1019.89 1020.60 1021.31 1021.52 1022.06 1022.35 1022.43 1022.77 1023.01
1016.98 1016.98 1017.31 1017.72 1018.09 1018.05 1017.75 1017.58 1017.45 1017.66 1017.99 1017.69 1016.62 1013.82 1012.01 1011.37 1011.25 1011.12 1010.42 1010.16 1010.00 1009.67 1009.77 1010.83 1012.27 1013.18 1014.08 1014.61 1015.17 1015.79 1016.66 1017.46 1018.20 1018.66 1019.29 1020.35 1021.11 1021.67 1021.80 1022.02 1022.19 1022.45 1022.74 1023.06
1017.76 1017.66 1017.83 1018.03 1017.92 1017.90 1017.70 1017.52 1017.85 1018.11 1018.25 1017.33 1017.05 1013.24 1011.42 1010.61 1010.29 1010.04 1009.32 1008.96 1008.57 1008.72 1009.27 1010.19 1010.95 1012.13 1012.76 1013.16 1014.24 1015.21 1016.02 1016.74 1017.44 1018.14 1018.77 1018.98 1019.39 1020.16 1020.50 1020.98 1021.70 1022.37 1022.66 1022.82
1017.00 1017.53 1017.98 1018.01 1017.68 1017.97 1017.92 1018.03 1018.29 1018.53 1018.26 1017.85 1016.44 1015.29 1010.72 1010.46 1009.16 1008.80 1008.09 1007.85 1007.84 1008.08 1008.87 1009.53 1010.24 1010.93 1011.47 1012.55 1013.29 1014.28 1015.23 1015.94 1016.58 1017.19 1017.74 1018.12 1018.63 1019.29 1020.14 1020.80 1021.50 1022.21 1022.66 1022.87
1017.52 1017.99 1017.86 1017.73 1018.35 1018.42 1018.73 1018.76 1018.95 1019.06 1018.69 1017.18 1014.92 1014.34 1009.80 1009.08 1008.19 1008.01 1007.61 1007.46 1007.67 1008.04 1008.75 1009.34 1010.06 1010.94 1011.65 1012.62 1013.26 1013.73 1014.35 1015.08 1015.89 1016.49 1016.81 1017.20 1017.66 1018.40 1019.32 1020.23 1021.05 1021.77 1022.35 1022.90
1017.62 1017.66 1017.83 1017.95 1018.31 1018.98 1018.59 1018.42 1018.57 1018.57 1018.24 1015.61 1015.05 1014.12 1009.15 1008.91 1008.20 1007.97 1007.79 1007.29 1007.89 1008.40 1008.77 1009.19 1009.77 1010.56 1011.43 1012.23 1013.16 1013.74 1013.84 1014.27 1015.19 1016.00 1016.36 1016.67 1017.10 1017.89 1018.41 1018.96 1019.89 1020.87 1021.69 1022.22
1016.56 1016.84 1017.11 1017.07 1016.59 1017.22 1018.08 1017.38 1016.86 1016.35 1016.73 1015.39 1015.34 1012.25 1008.07 1008.57 1008.54 1008.06 1008.03 1007.68 1008.01 1008.56 1008.99 1009.17 1009.40 1010.21 1011.14 1011.87 1012.60 1013.24 1013.85 1013.90 1014.49 1015.37 1015.84 1016.53 1016.99 1017.62 1017.98 1018.50 1019.02 1019.90 1020.44 1020.89
1015.80 1016.14 1016.42 1016.56 1016.33 1016.45 1017.61 1017.37 1016.30 1016.46 1017.25 1016.38 1013.20 1009.73 1008.15 1008.38 1007.97 1007.63 1007.52 1007.67 1007.55 1008.21 1008.56 1008.91 1009.33 1009.99 1010.78 1011.60 1012.39 1012.86 1013.30 1013.76 1014.13 1014.73 1015.23 1015.74 1016.31 1016.94 1017.34 1018.11 1018.85 1019.57 1020.14 1020.77
1015.34 1015.87 1016.36 1016.77 1016.87 1016.84 1016.30 1016.09 1016.69 1016.71 1016.00 1014.68 1011.57 1010.09 1007.58 1007.36 1007.15 1006.80 1007.21 1007.42 1007.52 1007.65 1008.01 1008.61 1009.32 1010.06 1010.70 1011.38 1011.83 1012.51 1012.94 1013.37 1013.87 1014.49 1014.82 1015.39 1015.95 1016.41 1017.02 1017.74 1018.54 1019.15 1019.87 1020.75
1015.43 1016.14 1016.95 1017.01 1016.22 1015.77 1016.60 1016.14 1015.89 1015.50 1014.99 1013.45 1011.65 1008.63 1007.08 1006.77 1006.81 1007.19 1007.30 1007.56 1007.57 1007.67 1007.86 1008.39 1009.18 1009.99 1010.81 1011.60 1012.19 1012.01 1012.39 1012.90 1013.39 1014.02 1014.42 1014.92 1015.26 1015.85 1016.53 1017.16 1017.91 1018.73 1019.66 1020.39
1015.69 1016.07 1016.23 1015.94 1015.87 1015.70 1015.10 1014.18 1014.56 1014.45 1014.05 1013.65 1012.09 1008.43 1007.21 1007.37 1007.28 1007.51 1007.52 1007.65 1007.71 1008.17 1008.33 1008.63 1009.23 1009.86 1010.63 1011.23 1011.69 1011.94 1012.09 1012.23 1012.77 1013.24 1013.75 1014.41 1014.90 1015.38 1015.97 1016.57 1017.29 1018.23 1018.99 1019.90
1016.16 1016.66 1016.68 1015.78 1016.31 1016.19 1015.25 1014.26 1013.95 1013.69 1014.05 1012.63 1011.57 1008.55 1007.27 1007.56 1007.49 1007.51 1007.70 1007.56 1007.75 1007.97 1008.21 1008.56 1009.31 1009.81 1010.29 1010.82 1011.14 1011.41 1011.90 1011.68 1012.12 1012.81 1013.13 1013.64 1014.16 1014.78 1015.34 1016.09 1016.85 1017.88 1018.63 1019.44
1016.52 1016.58 1016.19 1014.54 1013.53 1013.97 1014.32 1013.59 1013.24 1013.14 1012.97 1011.18 1010.16 1008.08 1006.55 1006.83 1007.12 1007.02 1007.16 1007.06 1007.46 1007.65 1007.89 1008.42 1008.66 1008.81 1009.29 1009.99 1010.29 1010.79 1011.19 1011.35 1011.70 1012.18 1012.70 1012.99 1013.35 1014.00 1014.80 1015.73 1016.57 1017.48 1018.22 1019.04
1017.37 1016.85 1016.50 1014.78 1014.10 1014.09 1013.62 1013.04 1012.90 1012.64 1010.91 1010.46 1008.14 1008.24 1005.55 1005.93 1006.57 1006.58 1006.72 1006.57 1006.71 1007.00 1007.20 1007.48 1007.68 1007.94 1008.52 1009.25 1009.64 1010.37 1010.53 1010.56 1011.03 1011.69 1012.04 1012.20 1013.01 1013.76 1014.47 1015.37 1016.29 1017.17 1017.89 1018.55
1017.76 1017.23 1016.91 1015.49 1014.46 1014.39 1013.75 1013.34 1012.51 1011.13 1010.05 1009.81 1008.31 1007.03 1005.26 1005.54 1005.77 1006.15 1006.24 1006.68 1006.58 1006.30 1006.10 1005.86 1006.49 1007.03 1007.51 1007.92 1008.45 1008.89 1009.19 1009.63 1010.41 1010.81 1011.09 1011.79 1012.47 1013.28 1014.10 1015.01 1015.99 1016.89 1017.51 1018.16
1017.69 1017.07 1016.88 1015.46 1014.50 1014.15 1012.86 1011.55 1011.03 1010.86 1009.93 1008.72 1008.03 1005.61 1005.27 1005.41 1005.21 1005.51 1005.61 1006.13 1005.87 1005.70 1005.55 1005.53 1005.69 1005.86 1006.23 1006.48 1006.92 1007.49 1008.03 1008.98 1009.68 1010.13 1010.69 1011.31 1012.04 1012.81 1013.59 1014.63 1015.56 1016.43 1017.17 1017.86
1017.97 1017.46 1016.97 1015.33 1014.81 1012.80 1010.59 1010.12 1009.64 1009.07 1008.42 1008.13 1007.74 1006.45 1005.04 1004.68 1004.99 1005.35 1005.61 1005.73 1005.29 1005.37 1005.47 1005.40 1005.33 1005.40 1005.79 1006.13 1006.52 1006.93 1007.66 1008.35 1009.13 1009.81 1010.45 1011.20 1011.89 1012.56 1013.24 1014.04 1014.86 1015.86 1016.79 1017.47
1016.50 1017.08 1016.30 1015.39 1013.48 1011.90 1010.91 1009.72 1009.53 1008.87 1007.81 1007.85 1007.60 1006.22 1005.25 1004.82 1006.09 1004.71 1004.64 1005.21 1005.04 1005.16 1005.12 1005.31 1005.56 1005.66 1005.74 1005.97 1006.28 1006.94 1007.70 1008.25 1008.93 1009.38 1009.94 1010.59 1011.28 1012.06 1012.96 1013.75 1014.42 1015.12 1016.14 1017.14
1015.01 1015.04 1015.37 1014.49 1012.84 1010.95 1009.74 1008.59 1009.06 1009.28 1008.16 1006.66 1007.13 1006.41 1005.74 1005.47 1006.27 1003.82 1004.77 1004.94 1005.32 1005.61 1006.16 1006.31 1006.49 1006.39 1006.26 1006.19 1006.52 1006.90 1007.43 1008.09 1008.55 1009.07 1009.71 1010.48 1011.18 1011.81 1012.49 1013.28 1014.29 1015.12 1015.77 1016.42
1014.85 1014.63 1013.81 1012.95 1011.80 1010.43 1009.37 1008.24 1009.22 1009.66 1009.17 1008.07 1007.12 1006.18 1005.77 1006.15 1005.57 1004.80 1005.65 1006.07 1006.57 1006.92 1007.27 1007.36 1007.30 1007.16 1007.01 1006.97 1007.14 1007.43 1007.75 1007.89 1008.27 1008.90 1009.57 1010.36 1011.02 1011.67 1012.43 1013.41 1014.08 1015.12 1016.05 1016.98
1013.97 1013.65 1013.13 1012.25 1011.08 1009.77 1009.37 1009.43 1009.56 1009.83 1009.62 1010.02 1009.36 1008.40 1007.74 1007.14 1006.90 1006.48 1006.64 1006.87 1007.15 1007.42 1007.75 1007.99 1007.98 1008.01 1008.06 1007.95 1007.76 1007.85 1008.29 1008.74 1009.06 1009.41 1009.92 1010.49 1011.03 1011.83 1012.70 1013.50 1014.42 1015.30 1016.09 1017.12
1013.05 1012.37 1012.14 1011.79 1010.33 1009.82 1009.84 1009.92 1009.65 1009.92 1010.42 1010.01 1009.96 1008.99 1008.46 1008.21 1007.46 1007.41 1007.22 1007.50 1007.98 1008.19 1008.57 1008.67 1008.54 1008.51 1008.77 1008.87 1008.68 1008.66 1008.95 1009.29 1009.61 1010.08 1010.70 1011.19 1011.56 1012.10 1012.68 1013.35 1014.40 1015.39 1016.24 1016.92
1013.04 1012.46 1011.79 1011.80 1010.19 1009.84 1009.49 1009.52 1009.75 1010.02 1009.81 1009.44 1008.84 1008.40 1008.61 1008.73 1008.12 1007.89 1007.89 1008.15 1008.69 1009.08 1009.54 1009.57 1009.56 1009.26 1009.22 1009.42 1009.38 1009.55 1009.81 1010.02 1010.29 1010.74 1011.32 1011.85 1012.18 1012.68 1013.31 1013.82 1014.29 1015.03 1015.84 1016.65
1012.95 1012.33 1011.49 1010.87 1010.19 1009.68 1009.31 1009.49 1009.93 1009.97 1009.75 1009.14 1008.56 1008.42 1008.58 1009.03 1008.81 1008.60 1008.18 1008.50 1009.10 1009.87 1010.10 1009.99 1010.09 1010.17 1010.32 1010.01 1009.75 1010.21 1010.47 1010.62 1010.91 1011.14 1011.67 1012.13 1012.57 1012.92 1013.64 1014.21 1014.60 1015.06 1015.43 1015.73
1012.05 1011.52 1011.20 1010.20 1010.11 1010.15 1009.64 1009.83 1010.17 1010.00 1009.72 1009.56 1009.24 1008.67 1008.13 1009.00 1009.21 1008.61 1008.47 1009.13 1010.03 1010.24 1010.05 1010.43 1010.94 1011.33 1011.37 1010.82 1010.69 1011.02 1010.90 1011.05 1011.42 1011.64 1012.01 1012.35 1012.73 1013.23 1013.84 1014.47 1015.06 1015.48 1015.96 1016.33
Thickness
5652 5661 5661 5677 5669 5663 5666 5667 5673 5681 5672 5670 5686 5699 5709 5717 5721 5720 5724 5732 5736 5738 5739 5734 5726 5718 5710 5704 5698 5693 5686 5681 5676 5671 5667 5663 5661 5656 5654 5652 5650 5648 5644 5640
5647 5651 5668 5656 5652 5652 5654 5659 5668 5674 5660 5659 5679 5693 5708 5714 5724 5730 5734 5740 5741 5743 5742 5735 5724 5717 5712 5707 5700 5693 5688 5682 5677 5672 5668 5664 5659 5653 5650 5646 5643 5642 5638 5635
5649 5655 5650 5648 5641 5643 5650 5653 5660 5660 5652 5652 5660 5686 5711 5723 5722 5725 5736 5739 5742 5746 5747 5741 5726 5718 5712 5708 5702 5695 5687 5680 5672 5667 5660 5651 5646 5643 5642 5639 5637 5634 5630 5627
5633 5640 5638 5637 5642 5647 5647 5652 5649 5644 5644 5651 5649 5666 5708 5725 5724 5726 5738 5741 5746 5746 5745 5738 5734 5720 5714 5711 5702 5692 5683 5676 5669 5662 5656 5654 5651 5647 5644 5639 5632 5626 5622 5620
5638 5625 5624 5630 5643 5638 5644 5635 5635 5631 5636 5632 5649 5638 5694 5701 5718 5729 5739 5744 5747 5746 5741 5737 5732 5725 5720 5708 5700 5690 5679 5672 5666 5661 5656 5653 5649 5644 5637 5630 5624 5618 5614 5610
5619 5614 5623 5632 5619 5625 5618 5620 5617 5614 5619 5626 5661 5649 5688 5714 5726 5731 5737 5742 5740 5740 5734 5730 5726 5717 5709 5699 5691 5684 5677 5671 5662 5657 5655 5652 5648 5642 5634 5626 5618 5612 5607 5602
5604 5608 5610 5614 5612 5604 5612 5617 5608 5605 5599 5633 5628 5631 5684 5705 5716 5721 5729 5737 5731 5726 5725 5724 5719 5712 5702 5693 5683 5677 5673 5669 5659 5651 5649 5647 5643 5636 5632 5627 5619 5609 5602 5597
5599 5601 5605 5614 5624 5614 5602 5618 5614 5601 5603 5637 5597 5634 5692 5701 5703 5710 5715 5721 5718 5712 5712 5713 5713 5706 5697 5687 5679 5671 5664 5663 5657 5648 5644 5638 5634 5628 5625 5621 5616 5607 5601 5595
5591 5593 5595 5601 5609 5615 5594 5592 5621 5600 5556 5586 5637 5674 5696 5693 5699 5702 5705 5705 5709 5705 5705 5703 5702 5696 5689 5680 5671 5664 5658 5654 5651 5645 5641 5635 5629 5622 5619 5612 5605 5597 5591 5584
5592 5586 5583 5584 5589 5589 5598 5607 5585 5583 5577 5582 5634 5644 5671 5690 5702 5709 5700 5696 5698 5699 5698 5695 5687 5684 5678 5671 5666 5658 5652 5646 5642 5636 5633 5627 5621 5616 5610 5604 5596 5589 5582 5573
5583 5573 5568 5569 5580 5591 5578 5584 5585 5589 5585 5595 5603 5640 5691 5693 5694 5686 5686 5684 5686 5687 5685 5684 5675 5665 5663 5657 5652 5652 5646 5640 5635 5629 5625 5620 5616 5610 5604 5598 5590 5582 5572 5565
5569 5560 5563 5574 5572 5575 5587 5601 5592 5575 5575 5573 5587 5625 5670 5673 5674 5666 5669 5669 5674 5667 5666 5665 5663 5654 5645 5645 5641 5638 5637 5635 5629 5624 5619 5613 5608 5603 5597 5591 5583 5574 5566 5557
5552 5536 5536 5556 5555 5553 5564 5580 5583 5587 5557 5567 5572 5613 5663 5653 5653 5655 5655 5660 5658 5652 5653 5650 5645 5643 5639 5634 5631 5628 5624 5627 5622 5616 5613 5607 5602 5595 5589 5581 5574 5564 5557 5548
5531 5526 5532 5562 5587 5573 5558 5569 5573 5569 5554 5578 5580 5613 5652 5648 5642 5648 5652 5652 5645 5642 5639 5638 5637 5635 5631 5628 5627 5621 5617 5615 5613 5610 5605 5601 5596 5588 5580 5571 5563 5554 5547 5539
5510 5506 5522 5550 5561 5552 5555 5561 5560 5554 5578 5566 5603 5592 5640 5644 5637 5640 5636 5640 5637 5632 5633 5630 5628 5626 5623 5616 5613 5610 5609 5610 5607 5602 5597 5594 5585 5577 5569 5561 5552 5543 5535 5529
5490 5488 5498 5512 5538 5531 5531 5541 5547 5560 5573 5568 5586 5593 5639 5636 5629 5622 5622 5616 5616 5621 5627 5634 5626 5621 5617 5616 5610 5608 5608 5605 5596 5593 5590 5583 5576 5568 5559 5550 5540 5531 5525 5518
5477 5479 5483 5501 5524 5515 5512 5537 5549 5551 5560 5573 5563 5605 5621 5613 5617 5613 5614 5606 5609 5615 5620 5622 5621 5620 5618 5618 5613 5609 5604 5596 5589 5584 5578 5572 5565 5558 5550 5539 5530 5521 5513 5506
5458 5463 5465 5490 5489 5502 5535 5552 5553 5550 5559 5564 5562 5583 5607 5611 5611 5601 5602 5600 5606 5607 5606 5611 5614 5615 5613 5607 5603 5600 5591 5585 5577 5571 5565 5557 5551 5545 5539 5531 5523 5513 5503 5495
5463 5455 5460 5467 5488 5502 5515 5547 5539 5535 5547 5555 5552 5576 5591 5599 5575 5593 5606 5597 5598 5599 5602 5600 5598 5596 5596 5593 5589 5581 5573 5570 5564 5561 5555 5549 5542 5535 5526 5519 5513 5505 5494 5484
5463 5464 5451 5465 5461 5479 5524 5551 5534 5522 5512 5571 5554 5559 5568 5574 5547 5596 5589 5580 5581 5578 5572 5571 5570 5571 5574 5576 5572 5567 5562 5557 5553 5549 5543 5535 5527 5521 5514 5506 5496 5487 5481 5475
5435 5430 5439 5448 5455 5472 5511 5537 5517 5494 5519 5514 5531 5549 5557 5549 5555 5572 5558 5558 5550 5547 5545 5546 5549 5553 5554 5553 5550 5548 5546 5545 5541 5535 5528 5519 5512 5505 5497 5487 5481 5470 5461 5451
5433 5435 5442 5445 5455 5467 5480 5490 5503 5486 5486 5487 5498 5511 5515 5524 5523 5528 5531 5531 5529 5527 5526 5525 5528 5529 5527 5526 5529 5529 5526 5520 5517 5514 5509 5503 5497 5488 5479 5469 5460 5450 5441 5431
5407 5432 5435 5442 5462 5458 5462 5465 5471 5463 5463 5477 5479 5489 5489 5494 5504 5505 5510 5511 5505 5504 5502 5500 5502 5503 5501 5500 5503 5505 5500 5496 5491 5487 5481 5476 5473 5467 5460 5453 5442 5432 5423 5416
5389 5405 5402 5402 5435 5446 5451 5456 5455 5448 5455 5468 5472 5473 5471 5475 5483 5487 5488 5487 5484 5476 5475 5475 5478 5482 5482 5478 5478 5477 5474 5471 5468 5463 5457 5452 5449 5444 5436 5430 5425 5418 5410 5401
5381 5386 5396 5399 5417 5429 5441 5438 5434 5434 5438 5449 5452 5456 5456 5456 5461 5466 5468 5463 5460 5454 5452 5455 5457 5458 5457 5460 5462 5457 5453 5453 5448 5444 5439 5434 5429 5425 5416 5409 5405 5400 5396 5392
5375 5382 5378 5391 5407 5405 5420 5416 5410 5416 5424 5427 5432 5438 5442 5436 5443 5449 5449 5444 5436 5437 5439 5438 5433 5432 5431 5437 5438 5435 5434 5432 5428 5425 5421 5417 5412 5407 5399 5393 5384 5381 5375 5370